Regional Weather Roundup
Issued by NWS

Home | Current Version | Previous Version | Text Only | Print | Product List | Glossary On
Versions: 1 2 3 4 5 6 7 8 9 10 11 12 13 14 15 16 17 18 19 20 21 22 23 24 25 26 27 28 29 30 31 32 33 34 35 36 37 38 39 40 41 42 43 44 45 46 47 48 49 50
670
ASUS44 KLIX 200201
RWRLA
LOUISIANA WEATHER ROUNDUP
NATIONAL WEATHER SERVICE NEW ORLEANS LA
800 PM CST FRI DEC 19 2014

NOTE: "FAIR" INDICATES FEW OR NO CLOUDS BELOW 12,000 FEET WITH NO
      SIGNIFICANT WEATHER AND/OR OBSTRUCTIONS TO VISIBILITY.
      SKY/WX - SKY CONDITION AND SIGNIFICANT WEATHER.
      TMP - AIR TEMPERATURE.    DP   - DEWPOINT TEMPERATURE.
      RH  - RELATIVE HUMIDITY.  PRES - PRESSURE.
      HX  - HEAT INDEX.         WCI  - WIND CHILL INDEX.

*  THESE STATIONS ARE NOT NWS OR FAA STATIONS AND ARE NOT UNDER
   NWS QUALITY CONTROL.

LAZ040-048-061>063-065-066-069-200300-
SOUTHEAST LOUISIANA

CITY           SKY/WX    TMP DP  RH WIND       PRES   REMARKS
N.O. AUDUBON     N/A     54  49  86 MISG        N/A
N.O. INTL ARPT LGT RAIN  51  49  92 NE15      30.09R FOG
N.O. LAKEFRONT LGT RAIN  53  48  83 NE17      30.11R
N.O. DOWNTOWN* CLOUDY    52  45  76 NE8       30.10R
SLIDELL        RAIN      49  47  93 N9        30.10R FOG
BATON ROUGE    CLOUDY    48  46  93 NE9       30.09S
BOOTHVILLE     CLOUDY    58  57  97 NE9       30.04F
BELLE CHASSE   CLOUDY    52  50  93 NE10G18   30.08R
BOGALUSA*      HVY RAIN  49  46  88 NE6       30.15R
GALLIANO*      NOT AVBL
NEW ROADS*     NOT AVBL
GONZALES*      NOT AVBL
HAMMOND*       NOT AVBL
HOUMA*         LGT RAIN  52  51  98 NE14      30.07R
PORT FOURCHON* CLOUDY    59  57  94 NE15G21   30.06S

$$

LAZ041-044-053-054-200300-
SOUTHWEST LOUISIANA

CITY           SKY/WX    TMP DP  RH WIND       PRES   REMARKS
LAKE CHARLES   LGT RAIN  52  50  93 NE14      30.06R
LAFAYETTE      CLOUDY    50  32  50 E7        30.08R
PATTERSON      CLOUDY    52  48  87 NE14      30.08R
SALT POINT       N/A     54  50  86 VRB7      30.05R
NEW IBERIA     CLOUDY    51  49  92 NE9       30.08R
CHENAULT AIRPK LGT RAIN  52  50  93 NE7       30.07R

$$

LAZ027-028-200300-
CENTRAL LOUISIANA

CITY           SKY/WX    TMP DP  RH WIND       PRES   REMARKS
FORT POLK      CLOUDY    48  47  98 NE8       30.11R
ALEXANDRIA INT LGT RAIN  48  47  96 N8        30.12R
ALEXANDRIA     CLOUDY    48  46  93 VRB3      30.12R

$$

LAZ001-002-200300-
NORTHWEST LOUISIANA

CITY           SKY/WX    TMP DP  RH WIND       PRES   REMARKS
SHREVEPORT     DRIZZLE   47  45  93 NE13      30.17S FOG
BARKSDALE AFB  NOT AVBL
DTN SHREVEPORT CLOUDY    46  44  93 NE7       30.18S

$$

LAZ014-016-200300-
NORTHEAST LOUISIANA

CITY           SKY/WX    TMP DP  RH WIND       PRES   REMARKS
MONROE         CLOUDY    47  45  93 NE9       30.20R
TALLULAH       CLOUDY    47  44  90 N12       30.18R

$$




USA.gov is the U.S. government's official web portal to all federal, state and local government web resources and services.